Dew Point Data


Current

Temp 46.0 F. Dew Point 37.9 F.


Dew Point Comfort Scale

dewpoints

Date, Time Temperature Dew Point
Mon Feb 10 02:08:05 2020 46.0 F. 44.1 F.
Mon Feb 10 03:08:05 2020 44.0 F. 43.0 F.
Mon Feb 10 04:08:05 2020 42.0 F. 39.0 F.
Mon Feb 10 05:08:05 2020 42.0 F. 39.0 F.
Mon Feb 10 06:08:05 2020 39.0 F. 37.9 F.
Mon Feb 10 07:08:05 2020 39.0 F. 37.0 F.
Mon Feb 10 08:08:04 2020 38.0 F. 36.0 F.
Mon Feb 10 09:08:05 2020 38.0 F. 36.0 F.
Mon Feb 10 10:08:06 2020 38.0 F. 36.0 F.
Mon Feb 10 11:08:05 2020 37.0 F. 35.1 F.
Mon Feb 10 12:08:05 2020 37.0 F. 35.1 F.
Mon Feb 10 13:08:05 2020 38.0 F. 35.1 F.
Mon Feb 10 14:08:05 2020 38.0 F. 35.1 F.
Mon Feb 10 15:08:05 2020 37.0 F. 34.0 F.
Mon Feb 10 16:08:04 2020 37.0 F. 33.1 F.
Mon Feb 10 17:08:05 2020 36.0 F. 33.1 F.
Mon Feb 10 18:08:05 2020 36.0 F. 32.0 F.
Mon Feb 10 19:08:05 2020 35.0 F. 32.0 F.
Mon Feb 10 20:08:09 2020 35.0 F. 32.0 F.
Mon Feb 10 21:08:05 2020 35.0 F. 30.9 F.
Mon Feb 10 22:08:05 2020 35.0 F. 32.0 F.
Mon Feb 10 23:08:05 2020 35.0 F. 32.0 F.
Tue Feb 11 00:08:05 2020 34.0 F. 30.9 F.
Tue Feb 11 01:08:05 2020 33.0 F. 30.9 F.
Tue Feb 11 02:08:05 2020 33.0 F. 30.9 F.
Tue Feb 11 03:08:05 2020 33.0 F. 30.9 F.
Tue Feb 11 04:08:05 2020 33.0 F. 30.9 F.
Tue Feb 11 05:08:05 2020 32.0 F. 30.9 F.
Tue Feb 11 06:08:05 2020 33.0 F. 30.9 F.
Tue Feb 11 07:08:05 2020 33.0 F. 30.9 F.
Tue Feb 11 08:08:06 2020 33.0 F. 30.9 F.
Tue Feb 11 09:08:05 2020 35.0 F. 32.0 F.
Tue Feb 11 10:08:10 2020 38.0 F. 32.0 F.
Tue Feb 11 11:08:05 2020 39.0 F. 32.0 F.
Tue Feb 11 12:08:05 2020 40.0 F. 32.0 F.
Tue Feb 11 13:08:06 2020 41.0 F. 32.0 F.
Tue Feb 11 14:08:05 2020 41.0 F. 32.0 F.
Tue Feb 11 15:08:05 2020 41.0 F. 30.9 F.
Tue Feb 11 16:08:17 2020 41.0 F. 30.9 F.
Tue Feb 11 17:08:05 2020 41.0 F. 30.9 F.
Tue Feb 11 18:08:04 2020 41.0 F. 32.0 F.
Tue Feb 11 19:08:05 2020 41.0 F. 32.0 F.
Tue Feb 11 20:08:04 2020 41.0 F. 32.0 F.
Tue Feb 11 21:08:08 2020 41.0 F. 32.0 F.
Tue Feb 11 22:08:05 2020 36.0 F. 33.1 F.
Tue Feb 11 23:08:05 2020 36.0 F. 33.1 F.
Wed Feb 12 00:08:06 2020 36.0 F. 33.1 F.
Wed Feb 12 01:08:05 2020 35.0 F. 33.1 F.
Wed Feb 12 02:08:05 2020 35.0 F. 34.0 F.
Wed Feb 12 03:08:05 2020 35.0 F. 33.1 F.
Wed Feb 12 04:08:04 2020 35.0 F. 33.1 F.
Wed Feb 12 05:08:05 2020 36.0 F. 33.1 F.
Wed Feb 12 06:08:05 2020 37.0 F. 32.0 F.
Wed Feb 12 07:08:05 2020 36.0 F. 32.0 F.
Wed Feb 12 08:08:05 2020 36.0 F. 33.1 F.
Wed Feb 12 09:08:05 2020 36.0 F. 33.1 F.
Wed Feb 12 10:08:05 2020 36.0 F. 34.0 F.
Wed Feb 12 11:08:05 2020 36.0 F. 34.0 F.
Wed Feb 12 12:08:04 2020 37.0 F. 34.0 F.
Wed Feb 12 13:08:05 2020 37.0 F. 34.0 F.
Wed Feb 12 14:08:05 2020 36.0 F. 35.1 F.
Wed Feb 12 15:08:06 2020 36.0 F. 34.0 F.
Wed Feb 12 16:08:05 2020 36.0 F. 35.1 F.
Wed Feb 12 17:08:05 2020 37.0 F. 35.1 F.
Wed Feb 12 18:08:24 2020 37.0 F. 35.1 F.
Wed Feb 12 19:08:06 2020 37.0 F. 36.0 F.
Wed Feb 12 20:08:05 2020 37.0 F. 36.0 F.
Wed Feb 12 21:08:07 2020 37.0 F. 36.0 F.
Wed Feb 12 22:08:05 2020 37.0 F. 36.0 F.
Wed Feb 12 23:08:06 2020 37.0 F. 35.1 F.
Thu Feb 13 00:08:05 2020 36.0 F. 36.0 F.
Thu Feb 13 01:08:05 2020 36.0 F. 35.1 F.
Thu Feb 13 02:08:05 2020 36.0 F. 34.0 F.
Thu Feb 13 03:08:06 2020 35.0 F. 32.0 F.
Thu Feb 13 04:08:05 2020 34.0 F. 32.0 F.
Thu Feb 13 05:08:05 2020 34.0 F. 32.0 F.
Thu Feb 13 06:08:05 2020 34.0 F. 32.0 F.
Thu Feb 13 07:08:05 2020 35.0 F. 32.0 F.
Thu Feb 13 08:08:05 2020 34.0 F. 31.5 F.
Thu Feb 13 09:08:05 2020 34.0 F. 30.9 F.
Thu Feb 13 10:08:05 2020 28.0 F. 24.1 F.
Thu Feb 13 11:08:07 2020 25.0 F. 21.0 F.
Thu Feb 13 12:08:06 2020 24.0 F. 19.9 F.
Thu Feb 13 13:08:05 2020 24.0 F. 18.0 F.
Thu Feb 13 14:08:05 2020 24.0 F. 17.1 F.
Thu Feb 13 15:08:05 2020 24.0 F. 16.0 F.
Thu Feb 13 16:08:04 2020 24.0 F. 15.1 F.
Thu Feb 13 17:08:05 2020 22.0 F. 12.9 F.
Thu Feb 13 18:08:05 2020 19.0 F. 12.0 F.
Thu Feb 13 19:08:13 2020 18.0 F. 10.0 F.
Thu Feb 13 20:08:05 2020 16.0 F. 8.1 F.
Thu Feb 13 21:08:05 2020 16.0 F. 8.1 F.
Thu Feb 13 22:08:05 2020 16.0 F. 8.1 F.
Thu Feb 13 23:08:05 2020 16.0 F. 8.1 F.
Fri Feb 14 00:08:05 2020 16.0 F. 8.1 F.
Fri Feb 14 01:08:05 2020 16.0 F. 8.1 F.
Fri Feb 14 02:08:05 2020 16.0 F. 8.1 F.
Fri Feb 14 03:08:06 2020 11.0 F. 5.0 F.
Fri Feb 14 04:08:05 2020 10.0 F. 3.0 F.
Fri Feb 14 05:08:05 2020 10.0 F. 3.0 F.
Fri Feb 14 06:08:04 2020 9.0 F. 3.9 F.
Fri Feb 14 07:08:06 2020 9.0 F. 3.0 F.
Fri Feb 14 08:08:05 2020 10.0 F. 3.9 F.
Fri Feb 14 09:08:05 2020 12.0 F. 3.9 F.
Fri Feb 14 10:08:06 2020 15.0 F. 6.1 F.
Fri Feb 14 11:08:04 2020 17.0 F. 6.1 F.
Fri Feb 14 12:08:04 2020 18.0 F. 6.1 F.
Fri Feb 14 13:08:05 2020 21.0 F. 7.0 F.
Fri Feb 14 14:08:05 2020 23.0 F. 10.0 F.
Fri Feb 14 15:08:05 2020 24.0 F. 9.0 F.
Fri Feb 14 16:08:05 2020 25.0 F. 10.0 F.
Fri Feb 14 17:08:05 2020 25.0 F. 9.0 F.
Fri Feb 14 18:08:05 2020 24.0 F. 10.0 F.
Fri Feb 14 19:08:24 2020 23.0 F. 12.0 F.
Fri Feb 14 20:08:04 2020 22.0 F. 12.9 F.
Fri Feb 14 21:08:05 2020 20.0 F. 12.9 F.
Fri Feb 14 22:08:05 2020 19.0 F. 12.9 F.
Fri Feb 14 23:08:05 2020 20.0 F. 12.9 F.
Sat Feb 15 00:08:05 2020 19.0 F. 12.0 F.
Sat Feb 15 01:08:05 2020 19.0 F. 12.9 F.
Sat Feb 15 02:08:05 2020 20.0 F. 12.9 F.
Sat Feb 15 03:08:05 2020 19.0 F. 15.1 F.
Sat Feb 15 04:08:05 2020 19.0 F. 15.1 F.
Sat Feb 15 05:08:05 2020 22.0 F. 15.1 F.
Sat Feb 15 06:08:04 2020 22.0 F. 15.1 F.
Sat Feb 15 07:08:05 2020 22.0 F. 16.0 F.
Sat Feb 15 08:08:05 2020 25.0 F. 18.0 F.
Sat Feb 15 09:08:05 2020 30.0 F. 19.9 F.
Sat Feb 15 10:08:05 2020 35.0 F. 21.0 F.
Sat Feb 15 11:08:06 2020 40.0 F. 19.9 F.
Sat Feb 15 12:08:05 2020 42.0 F. 21.0 F.
Sat Feb 15 13:08:08 2020 44.0 F. 21.9 F.
Sat Feb 15 14:08:05 2020 46.0 F. 24.1 F.
Sat Feb 15 15:08:05 2020 48.0 F. 26.1 F.
Sat Feb 15 16:08:04 2020 46.0 F. 25.0 F.
Sat Feb 15 17:08:05 2020 43.0 F. 26.1 F.
Sat Feb 15 18:08:05 2020 44.0 F. 26.1 F.
Sat Feb 15 19:08:05 2020 43.0 F. 27.0 F.
Sat Feb 15 20:08:04 2020 42.0 F. 28.9 F.
Sat Feb 15 21:08:05 2020 42.0 F. 28.9 F.
Sat Feb 15 22:08:04 2020 39.0 F. 28.9 F.
Sat Feb 15 23:08:06 2020 40.0 F. 30.0 F.
Sun Feb 16 00:08:05 2020 37.0 F. 30.0 F.
Sun Feb 16 01:08:05 2020 37.0 F. 30.9 F.
Sun Feb 16 02:08:06 2020 36.0 F. 32.0 F.
Sun Feb 16 03:08:05 2020 38.0 F. 30.9 F.
Sun Feb 16 04:08:05 2020 37.0 F. 32.0 F.
Sun Feb 16 05:08:05 2020 36.0 F. 33.1 F.
Sun Feb 16 06:08:05 2020 36.0 F. 32.0 F.
Sun Feb 16 07:08:06 2020 34.0 F. 30.9 F.
Sun Feb 16 08:08:05 2020 37.0 F. 32.0 F.
Sun Feb 16 09:08:05 2020 43.0 F. 32.0 F.
Sun Feb 16 10:08:05 2020 46.0 F. 30.9 F.
Sun Feb 16 11:08:40 2020
Sun Feb 16 12:08:05 2020 50.0 F. 33.1 F.
Sun Feb 16 13:08:40 2020
Sun Feb 16 14:08:05 2020 52.0 F. 35.1 F.
Sun Feb 16 15:08:05 2020 53.0 F. 35.1 F.
Sun Feb 16 16:08:04 2020 51.0 F. 36.0 F.
Sun Feb 16 17:08:04 2020 50.0 F. 35.1 F.
Sun Feb 16 18:08:05 2020 47.0 F. 35.1 F.
Sun Feb 16 19:08:05 2020 46.0 F. 35.1 F.
Sun Feb 16 20:08:10 2020 44.0 F. 34.0 F.
Sun Feb 16 21:08:05 2020 40.0 F. 33.1 F.
Sun Feb 16 22:08:05 2020 40.0 F. 34.0 F.
Sun Feb 16 23:08:05 2020 37.0 F. 33.1 F.
Mon Feb 17 00:08:04 2020 37.0 F. 32.0 F.
Mon Feb 17 01:08:05 2020 37.0 F. 32.0 F.
Mon Feb 17 02:08:05 2020 37.0 F. 32.0 F.
Mon Feb 17 03:08:05 2020 39.0 F. 33.1 F.
Mon Feb 17 04:08:05 2020 39.0 F. 33.1 F.
Mon Feb 17 05:08:05 2020 40.0 F. 34.0 F.
Mon Feb 17 06:08:05 2020 40.0 F. 34.0 F.
Mon Feb 17 07:08:05 2020 42.0 F. 35.1 F.
Mon Feb 17 08:08:04 2020 44.0 F. 37.0 F.
Mon Feb 17 09:08:05 2020 46.0 F. 42.1 F.
Mon Feb 17 10:08:04 2020 48.0 F. 42.1 F.
Mon Feb 17 11:08:05 2020 50.0 F. 42.1 F.
Mon Feb 17 12:08:04 2020 52.0 F. 44.1 F.
Mon Feb 17 13:08:06 2020 54.0 F. 46.0 F.
Mon Feb 17 14:08:06 2020 57.0 F. 48.0 F.
Mon Feb 17 15:08:05 2020 57.0 F. 46.9 F.
Mon Feb 17 16:08:05 2020 58.0 F. 46.9 F.
Mon Feb 17 17:08:05 2020 55.0 F. 46.9 F.
Mon Feb 17 18:08:04 2020 54.0 F. 46.9 F.
Mon Feb 17 19:08:05 2020 54.0 F. 46.9 F.
Mon Feb 17 20:08:05 2020 53.0 F. 46.9 F.
Mon Feb 17 21:08:06 2020 53.0 F. 46.9 F.
Mon Feb 17 22:08:06 2020 53.0 F. 48.0 F.
Mon Feb 17 23:08:05 2020 53.0 F. 48.9 F.
Tue Feb 18 00:08:05 2020 53.0 F. 50.0 F.
Tue Feb 18 01:08:05 2020 53.0 F. 50.0 F.
Tue Feb 18 02:08:05 2020 52.0 F. 50.0 F.
Tue Feb 18 03:08:05 2020 52.0 F. 50.0 F.
Tue Feb 18 04:08:04 2020 52.0 F. 50.0 F.
Tue Feb 18 05:08:06 2020 50.0 F. 48.9 F.
Tue Feb 18 06:08:05 2020 52.0 F. 50.0 F.
Tue Feb 18 07:08:05 2020 52.0 F. 50.0 F.
Tue Feb 18 08:08:05 2020 52.0 F. 50.0 F.
Tue Feb 18 09:08:06 2020 52.0 F. 50.0 F.
Tue Feb 18 10:08:06 2020 49.0 F. 45.0 F.
Tue Feb 18 11:08:04 2020 39.0 F. 32.0 F.
Tue Feb 18 12:08:05 2020 40.0 F. 33.1 F.
Tue Feb 18 13:08:05 2020 40.0 F. 32.0 F.
Tue Feb 18 14:08:06 2020 40.0 F. 30.9 F.
Tue Feb 18 15:08:05 2020 38.0 F. 30.9 F.
Tue Feb 18 16:08:05 2020 38.0 F. 30.0 F.
Tue Feb 18 17:08:05 2020 39.0 F. 30.0 F.
Tue Feb 18 18:08:05 2020 38.0 F. 28.9 F.
Tue Feb 18 19:08:04 2020 37.0 F. 28.9 F.
Tue Feb 18 20:08:05 2020 35.0 F. 28.0 F.
Tue Feb 18 21:08:05 2020 33.0 F. 28.0 F.
Tue Feb 18 22:08:05 2020 32.0 F. 27.0 F.
Tue Feb 18 23:08:04 2020 31.0 F. 26.1 F.
Wed Feb 19 00:08:05 2020 30.0 F. 25.0 F.
Wed Feb 19 01:08:04 2020 29.0 F. 25.0 F.
Wed Feb 19 02:08:04 2020 29.0 F. 25.0 F.
Wed Feb 19 03:08:05 2020 26.0 F. 24.1 F.
Wed Feb 19 04:08:04 2020 26.0 F. 24.1 F.
Wed Feb 19 05:08:05 2020 25.0 F. 23.0 F.
Wed Feb 19 06:08:05 2020 25.0 F. 21.9 F.
Wed Feb 19 07:08:05 2020 26.0 F. 21.9 F.
Wed Feb 19 08:08:05 2020 30.0 F. 24.1 F.
Wed Feb 19 09:08:05 2020 32.0 F. 24.1 F.
Wed Feb 19 10:08:05 2020 35.0 F. 24.1 F.
Wed Feb 19 11:08:05 2020 37.0 F. 23.0 F.
Wed Feb 19 12:08:05 2020 40.0 F. 25.0 F.
Wed Feb 19 13:08:05 2020 43.0 F. 26.1 F.
Wed Feb 19 14:08:06 2020 44.0 F. 26.1 F.
Wed Feb 19 15:08:04 2020 45.0 F. 24.1 F.
Wed Feb 19 16:08:05 2020 45.0 F. 23.0 F.
Wed Feb 19 17:08:05 2020 43.0 F. 23.0 F.
Wed Feb 19 18:08:04 2020 40.0 F. 23.0 F.
Wed Feb 19 19:08:06 2020 39.0 F. 25.0 F.
Wed Feb 19 20:08:06 2020 38.0 F. 25.0 F.
Wed Feb 19 21:08:09 2020 38.0 F. 24.1 F.
Wed Feb 19 22:08:05 2020 38.0 F. 24.1 F.
Wed Feb 19 23:08:05 2020 36.0 F. 26.1 F.
Thu Feb 20 00:08:04 2020 36.0 F. 26.1 F.
Thu Feb 20 01:08:05 2020 34.0 F. 26.1 F.
Thu Feb 20 02:08:05 2020 34.0 F. 26.1 F.
Thu Feb 20 03:08:05 2020 33.0 F. 26.1 F.
Thu Feb 20 04:08:05 2020 32.0 F. 26.1 F.
Thu Feb 20 05:08:05 2020 32.0 F. 24.1 F.
Thu Feb 20 06:08:05 2020 31.0 F. 23.0 F.
Thu Feb 20 07:08:05 2020 31.0 F. 23.0 F.
Thu Feb 20 08:08:05 2020 29.0 F. 19.9 F.
Thu Feb 20 09:08:05 2020 29.0 F. 19.0 F.
Thu Feb 20 10:08:05 2020 32.0 F. 19.0 F.
Thu Feb 20 11:08:05 2020 34.0 F. 18.0 F.
Thu Feb 20 12:08:05 2020 34.0 F. 18.0 F.
Thu Feb 20 13:08:05 2020 35.0 F. 19.9 F.
Thu Feb 20 14:08:05 2020 35.0 F. 19.9 F.
Thu Feb 20 15:08:04 2020 35.0 F. 18.0 F.
Thu Feb 20 16:08:04 2020 33.0 F. 17.1 F.
Thu Feb 20 17:08:05 2020 31.0 F. 16.0 F.
Thu Feb 20 18:08:05 2020 28.0 F. 12.9 F.
Thu Feb 20 19:08:05 2020 26.0 F. 12.9 F.
Thu Feb 20 20:08:06 2020 25.0 F. 12.9 F.
Thu Feb 20 21:08:05 2020 24.0 F. 12.9 F.
Thu Feb 20 22:08:05 2020 24.0 F. 12.9 F.
Thu Feb 20 23:08:05 2020 23.0 F. 14.0 F.
Fri Feb 21 00:08:04 2020 22.0 F. 14.0 F.
Fri Feb 21 01:08:05 2020 22.0 F. 14.0 F.
Fri Feb 21 02:08:04 2020 19.0 F. 12.9 F.
Fri Feb 21 03:08:04 2020 18.0 F. 12.9 F.
Fri Feb 21 04:08:05 2020 18.0 F. 12.9 F.
Fri Feb 21 05:08:05 2020 18.0 F. 12.9 F.
Fri Feb 21 06:08:05 2020 17.0 F. 12.9 F.
Fri Feb 21 07:08:06 2020 16.0 F. 12.9 F.
Fri Feb 21 08:08:05 2020 20.0 F. 17.1 F.
Fri Feb 21 09:08:05 2020 24.0 F. 16.0 F.
Fri Feb 21 10:08:05 2020 26.0 F. 10.9 F.
Fri Feb 21 11:08:04 2020 28.0 F. 9.0 F.
Fri Feb 21 12:08:05 2020 32.0 F. 8.1 F.
Fri Feb 21 13:08:05 2020 33.0 F. 6.1 F.
Fri Feb 21 14:08:05 2020 36.0 F. 6.1 F.
Fri Feb 21 15:08:04 2020 39.0 F. 7.0 F.
Fri Feb 21 16:08:05 2020 40.0 F. 6.1 F.
Fri Feb 21 17:08:05 2020 39.0 F. 8.1 F.
Fri Feb 21 18:08:05 2020 33.0 F. 6.1 F.
Fri Feb 21 19:08:05 2020 31.0 F. 10.0 F.
Fri Feb 21 20:08:05 2020 29.0 F. 10.9 F.
Fri Feb 21 21:08:05 2020 29.0 F. 10.0 F.
Fri Feb 21 22:08:05 2020 27.0 F. 12.9 F.
Fri Feb 21 23:08:05 2020 27.0 F. 12.9 F.
Sat Feb 22 00:08:05 2020 26.0 F. 12.0 F.
Sat Feb 22 01:08:05 2020 25.0 F. 14.0 F.
Sat Feb 22 02:08:06 2020 26.0 F. 14.0 F.
Sat Feb 22 03:08:05 2020 22.0 F. 14.0 F.
Sat Feb 22 04:08:05 2020 23.0 F. 15.1 F.
Sat Feb 22 05:08:06 2020 24.0 F. 17.1 F.
Sat Feb 22 06:08:05 2020 23.0 F. 17.1 F.
Sat Feb 22 07:08:05 2020 21.0 F. 16.0 F.
Sat Feb 22 08:08:05 2020 27.0 F. 21.0 F.
Sat Feb 22 09:08:05 2020 34.0 F. 19.9 F.
Sat Feb 22 10:08:06 2020 38.0 F. 18.0 F.
Sat Feb 22 11:08:05 2020 43.0 F. 17.1 F.
Sat Feb 22 12:08:04 2020 45.0 F. 18.0 F.
Sat Feb 22 13:08:05 2020 46.0 F. 21.0 F.
Sat Feb 22 14:08:05 2020 47.0 F. 19.9 F.
Sat Feb 22 15:08:05 2020 48.0 F. 19.0 F.
Sat Feb 22 16:08:04 2020 47.0 F. 16.0 F.
Sat Feb 22 17:08:05 2020 45.0 F. 18.0 F.
Sat Feb 22 18:08:05 2020 41.0 F. 23.0 F.
Sat Feb 22 19:08:05 2020 41.0 F. 23.0 F.
Sat Feb 22 20:08:05 2020 37.0 F. 26.1 F.
Sat Feb 22 21:08:11 2020 36.0 F. 26.1 F.
Sat Feb 22 22:08:05 2020 37.0 F. 26.1 F.
Sat Feb 22 23:08:05 2020 36.0 F. 26.1 F.
Sun Feb 23 00:08:04 2020 40.0 F. 26.1 F.
Sun Feb 23 01:08:05 2020 41.0 F. 26.1 F.
Sun Feb 23 02:08:05 2020 42.0 F. 27.0 F.
Sun Feb 23 03:08:05 2020 43.0 F. 26.1 F.
Sun Feb 23 04:08:05 2020 44.0 F. 28.0 F.
Sun Feb 23 05:08:05 2020 42.0 F. 28.9 F.
Sun Feb 23 06:08:05 2020 42.0 F. 28.9 F.
Sun Feb 23 07:08:04 2020 42.0 F. 30.0 F.
Sun Feb 23 08:08:05 2020 43.0 F. 30.9 F.
Sun Feb 23 09:08:05 2020 44.0 F. 30.9 F.
Sun Feb 23 10:08:05 2020 46.0 F. 32.0 F.
Sun Feb 23 11:08:05 2020 49.0 F. 33.1 F.
Sun Feb 23 12:08:05 2020 51.0 F. 33.1 F.
Sun Feb 23 13:08:05 2020 51.0 F. 33.1 F.
Sun Feb 23 14:08:05 2020 56.0 F. 33.1 F.
Sun Feb 23 15:08:05 2020 54.0 F. 33.1 F.
Sun Feb 23 16:08:04 2020 51.0 F. 35.1 F.
Sun Feb 23 17:08:05 2020 49.0 F. 37.9 F.
Sun Feb 23 18:08:04 2020 47.0 F. 37.9 F.
Sun Feb 23 19:08:04 2020 46.0 F. 37.9 F.